Year,Month,Day,Hour,Minute,Value (Times are PST for temperature in C)
2016,08,26,00,00,21.00
2016,08,26,00,01,21.00
2016,08,26,00,02,21.00
2016,08,26,00,03,21.00
2016,08,26,00,04,21.00
2016,08,26,00,05,21.00
2016,08,26,00,06,21.00
2016,08,26,00,07,21.00
2016,08,26,00,08,21.00
2016,08,26,00,09,21.00
2016,08,26,00,10,21.00
2016,08,26,00,11,21.00
2016,08,26,00,12,21.00
2016,08,26,00,13,21.00
2016,08,26,00,14,21.00
2016,08,26,00,15,20.90
2016,08,26,00,16,20.90
2016,08,26,00,17,20.90
2016,08,26,00,18,20.90
2016,08,26,00,19,20.90
2016,08,26,00,20,20.80
2016,08,26,00,21,20.80
2016,08,26,00,22,20.80
2016,08,26,00,23,20.70
2016,08,26,00,24,20.70
2016,08,26,00,25,20.60
2016,08,26,00,26,20.60
2016,08,26,00,27,20.60
2016,08,26,00,28,20.50
2016,08,26,00,29,20.50
2016,08,26,00,30,20.40
2016,08,26,00,31,20.40
2016,08,26,00,32,20.40
2016,08,26,00,33,20.30
2016,08,26,00,34,20.30
2016,08,26,00,35,20.20
2016,08,26,00,36,20.20
2016,08,26,00,37,20.20
2016,08,26,00,38,20.20
2016,08,26,00,39,20.20
2016,08,26,00,40,20.20
2016,08,26,00,41,20.10
2016,08,26,00,42,20.10
2016,08,26,00,43,20.10
2016,08,26,00,44,20.00
2016,08,26,00,45,19.90
2016,08,26,00,46,19.90
2016,08,26,00,47,19.90
2016,08,26,00,48,19.90
2016,08,26,00,49,19.90
2016,08,26,00,50,19.90
2016,08,26,00,51,19.80
2016,08,26,00,52,19.80
2016,08,26,00,53,19.70
2016,08,26,00,54,19.70
2016,08,26,00,55,19.70
2016,08,26,00,56,19.60
2016,08,26,00,57,19.60
2016,08,26,00,58,19.50
2016,08,26,00,59,19.50
2016,08,26,01,00,19.50
2016,08,26,01,01,19.40
2016,08,26,01,02,19.40
2016,08,26,01,03,19.30
2016,08,26,01,04,19.30
2016,08,26,01,05,19.20
2016,08,26,01,06,19.20
2016,08,26,01,07,19.10
2016,08,26,01,08,19.10
2016,08,26,01,09,19.10
2016,08,26,01,10,19.10
2016,08,26,01,11,19.10
2016,08,26,01,12,19.10
2016,08,26,01,13,19.10
2016,08,26,01,14,19.10
2016,08,26,01,15,19.10
2016,08,26,01,16,19.10
2016,08,26,01,17,19.10
2016,08,26,01,18,19.10
2016,08,26,01,19,19.10
2016,08,26,01,20,19.10
2016,08,26,01,21,19.10
2016,08,26,01,22,19.10
2016,08,26,01,23,19.10
2016,08,26,01,24,19.10
2016,08,26,01,25,19.20
2016,08,26,01,26,19.30
2016,08,26,01,27,19.40
2016,08,26,01,28,19.40
2016,08,26,01,29,19.50
2016,08,26,01,30,19.60
2016,08,26,01,31,19.70
2016,08,26,01,32,19.80
2016,08,26,01,33,19.90
2016,08,26,01,34,20.00
2016,08,26,01,35,20.10
2016,08,26,01,36,20.20
2016,08,26,01,37,20.20
2016,08,26,01,38,20.30
2016,08,26,01,39,20.40
2016,08,26,01,40,20.50
2016,08,26,01,41,20.50
2016,08,26,01,42,20.60
2016,08,26,01,43,20.60
2016,08,26,01,44,20.60
2016,08,26,01,45,20.50
2016,08,26,01,46,20.50
2016,08,26,01,47,20.40
2016,08,26,01,48,20.20
2016,08,26,01,49,20.20
2016,08,26,01,50,20.10
2016,08,26,01,51,20.00
2016,08,26,01,52,19.90
2016,08,26,01,53,19.80
2016,08,26,01,54,19.70
2016,08,26,01,55,19.70
2016,08,26,01,56,19.60
2016,08,26,01,57,19.50
2016,08,26,01,58,19.40
2016,08,26,01,59,19.40
2016,08,26,02,00,19.30
2016,08,26,02,01,19.30
2016,08,26,02,02,19.20
2016,08,26,02,03,19.20
2016,08,26,02,04,19.10
2016,08,26,02,05,19.10
2016,08,26,02,06,19.10
2016,08,26,02,07,19.20
2016,08,26,02,08,19.30
2016,08,26,02,09,19.30
2016,08,26,02,10,19.40
2016,08,26,02,11,19.40
2016,08,26,02,12,19.50
2016,08,26,02,13,19.50
2016,08,26,02,14,19.50
2016,08,26,02,15,19.60
2016,08,26,02,16,19.60
2016,08,26,02,17,19.60
2016,08,26,02,18,19.60
2016,08,26,02,19,19.70
2016,08,26,02,20,19.70
2016,08,26,02,21,19.70
2016,08,26,02,22,19.70
2016,08,26,02,23,19.80
2016,08,26,02,24,19.80
2016,08,26,02,25,19.80
2016,08,26,02,26,19.70
2016,08,26,02,27,19.70
2016,08,26,02,28,19.70
2016,08,26,02,29,19.70
2016,08,26,02,30,19.70
2016,08,26,02,31,19.60
2016,08,26,02,32,19.60
2016,08,26,02,33,19.60
2016,08,26,02,34,19.60
2016,08,26,02,35,19.60
2016,08,26,02,36,19.60
2016,08,26,02,37,19.60
2016,08,26,02,38,19.60
2016,08,26,02,39,19.60
2016,08,26,02,40,19.60
2016,08,26,02,41,19.60
2016,08,26,02,42,19.60
2016,08,26,02,43,19.70
2016,08,26,02,44,19.70
2016,08,26,02,45,19.70
2016,08,26,02,46,19.70
2016,08,26,02,47,19.80
2016,08,26,02,48,19.80
2016,08,26,02,49,19.80
2016,08,26,02,50,19.80
2016,08,26,02,51,19.80
2016,08,26,02,52,19.80
2016,08,26,02,53,19.70
2016,08,26,02,54,19.70
2016,08,26,02,55,19.70
2016,08,26,02,56,19.70
2016,08,26,02,57,19.60
2016,08,26,02,58,19.50
2016,08,26,02,59,19.50
2016,08,26,03,00,19.40
2016,08,26,03,01,19.30
2016,08,26,03,02,19.30
2016,08,26,03,03,19.20
2016,08,26,03,04,19.10
2016,08,26,03,05,19.00
2016,08,26,03,06,18.90
2016,08,26,03,07,18.90
2016,08,26,03,08,18.80
2016,08,26,03,09,18.70
2016,08,26,03,10,18.60
2016,08,26,03,11,18.60
2016,08,26,03,12,18.50
2016,08,26,03,13,18.50
2016,08,26,03,14,18.40
2016,08,26,03,15,18.30
2016,08,26,03,16,18.30
2016,08,26,03,17,18.20
2016,08,26,03,18,18.20
2016,08,26,03,19,18.20
2016,08,26,03,20,18.20
2016,08,26,03,21,18.10
2016,08,26,03,22,18.10
2016,08,26,03,23,18.10
2016,08,26,03,24,18.00
2016,08,26,03,25,17.90
2016,08,26,03,26,17.90
2016,08,26,03,27,17.90
2016,08,26,03,28,17.90
2016,08,26,03,29,17.90
2016,08,26,03,30,17.90
2016,08,26,03,31,17.80
2016,08,26,03,32,17.80
2016,08,26,03,33,17.80
2016,08,26,03,34,17.70
2016,08,26,03,35,17.70
2016,08,26,03,36,17.70
2016,08,26,03,37,17.70
2016,08,26,03,38,17.70
2016,08,26,03,39,17.70
2016,08,26,03,40,17.60
2016,08,26,03,41,17.60
2016,08,26,03,42,17.60
2016,08,26,03,43,17.60
2016,08,26,03,44,17.60
2016,08,26,03,45,17.60
2016,08,26,03,46,17.50
2016,08,26,03,47,17.50
2016,08,26,03,48,17.50
2016,08,26,03,49,17.60
2016,08,26,03,50,17.60
2016,08,26,03,51,17.60
2016,08,26,03,52,17.60
2016,08,26,03,53,17.60
2016,08,26,03,54,17.60
2016,08,26,03,55,17.60
2016,08,26,03,56,17.60
2016,08,26,03,57,17.60
2016,08,26,03,58,17.60
2016,08,26,03,59,17.60
2016,08,26,04,00,17.50
2016,08,26,04,01,17.50
2016,08,26,04,02,17.50
2016,08,26,04,03,17.50
2016,08,26,04,04,17.50
2016,08,26,04,05,17.60
2016,08,26,04,06,17.60
2016,08,26,04,07,17.70
2016,08,26,04,08,17.70
2016,08,26,04,09,17.80
2016,08,26,04,10,17.80
2016,08,26,04,11,17.90
2016,08,26,04,12,17.90
2016,08,26,04,13,17.90
2016,08,26,04,14,17.90
2016,08,26,04,15,17.90
2016,08,26,04,16,17.90
2016,08,26,04,17,17.90
2016,08,26,04,18,17.90
2016,08,26,04,19,17.80
2016,08,26,04,20,17.80
2016,08,26,04,21,17.80
2016,08,26,04,22,17.70
2016,08,26,04,23,17.70
2016,08,26,04,24,17.70
2016,08,26,04,25,17.70
2016,08,26,04,26,17.80
2016,08,26,04,27,17.80
2016,08,26,04,28,17.90
2016,08,26,04,29,17.90
2016,08,26,04,30,18.10
2016,08,26,04,31,18.20
2016,08,26,04,32,18.30
2016,08,26,04,33,18.40
2016,08,26,04,34,18.50
2016,08,26,04,35,18.60
2016,08,26,04,36,18.80
2016,08,26,04,37,18.90
2016,08,26,04,38,19.10
2016,08,26,04,39,19.20
2016,08,26,04,40,19.20
2016,08,26,04,41,19.30
2016,08,26,04,42,19.30
2016,08,26,04,43,19.30
2016,08,26,04,44,19.30
2016,08,26,04,45,19.20
2016,08,26,04,46,19.20
2016,08,26,04,47,19.10
2016,08,26,04,48,19.10
2016,08,26,04,49,19.10
2016,08,26,04,50,19.10
2016,08,26,04,51,19.10
2016,08,26,04,52,19.10
2016,08,26,04,53,19.20
2016,08,26,04,54,19.20
2016,08,26,04,55,19.30
2016,08,26,04,56,19.40
2016,08,26,04,57,19.40
2016,08,26,04,58,19.50
2016,08,26,04,59,19.60
2016,08,26,05,00,19.80
2016,08,26,05,01,19.90
2016,08,26,05,02,20.00
2016,08,26,05,03,20.10
2016,08,26,05,04,20.20
2016,08,26,05,05,20.20
2016,08,26,05,06,20.20
2016,08,26,05,07,20.20
2016,08,26,05,08,20.20
2016,08,26,05,09,20.20
2016,08,26,05,10,20.10
2016,08,26,05,11,20.10
2016,08,26,05,12,20.10
2016,08,26,05,13,20.10
2016,08,26,05,14,20.00
2016,08,26,05,15,19.90
2016,08,26,05,16,19.90
2016,08,26,05,17,19.90
2016,08,26,05,18,19.90
2016,08,26,05,19,19.90
2016,08,26,05,20,19.90
2016,08,26,05,21,19.80
2016,08,26,05,22,19.70
2016,08,26,05,23,19.60
2016,08,26,05,24,19.40
2016,08,26,05,25,19.30
2016,08,26,05,26,19.20
2016,08,26,05,27,19.10
2016,08,26,05,28,19.00
2016,08,26,05,29,18.90
2016,08,26,05,30,18.90
2016,08,26,05,31,18.90
2016,08,26,05,32,18.90
2016,08,26,05,33,18.90
2016,08,26,05,34,18.90
2016,08,26,05,35,18.90
2016,08,26,05,36,18.90
2016,08,26,05,37,18.90
2016,08,26,05,38,18.90
2016,08,26,05,39,18.90
2016,08,26,05,40,18.90
2016,08,26,05,41,19.00
2016,08,26,05,42,19.10
2016,08,26,05,43,19.10
2016,08,26,05,44,19.10
2016,08,26,05,45,19.10
2016,08,26,05,46,19.10
2016,08,26,05,47,19.10
2016,08,26,05,48,19.10
2016,08,26,05,49,19.10
2016,08,26,05,50,19.10
2016,08,26,05,51,19.00
2016,08,26,05,52,18.90
2016,08,26,05,53,18.90
2016,08,26,05,54,18.90
2016,08,26,05,55,18.90
2016,08,26,05,56,18.90
2016,08,26,05,57,18.80
2016,08,26,05,58,18.80
2016,08,26,05,59,18.70
2016,08,26,06,00,18.70
2016,08,26,06,01,18.70
2016,08,26,06,02,18.70
2016,08,26,06,03,18.60
2016,08,26,06,04,18.60
2016,08,26,06,05,18.60
2016,08,26,06,06,18.60
2016,08,26,06,07,18.60
2016,08,26,06,08,18.60
2016,08,26,06,09,18.60
2016,08,26,06,10,18.60
2016,08,26,06,11,18.60
2016,08,26,06,12,18.60
2016,08,26,06,13,18.70
2016,08,26,06,14,18.70
2016,08,26,06,15,18.70
2016,08,26,06,16,18.70
2016,08,26,06,17,18.60
2016,08,26,06,18,18.60
2016,08,26,06,19,18.60
2016,08,26,06,20,18.50
2016,08,26,06,21,18.50
2016,08,26,06,22,18.40
2016,08,26,06,23,18.40
2016,08,26,06,24,18.30
2016,08,26,06,25,18.30
2016,08,26,06,26,18.20
2016,08,26,06,27,18.20
2016,08,26,06,28,18.20
2016,08,26,06,29,18.10
2016,08,26,06,30,18.10
2016,08,26,06,31,18.00
2016,08,26,06,32,17.90
2016,08,26,06,33,17.90
2016,08,26,06,34,17.90
2016,08,26,06,35,17.90
2016,08,26,06,36,17.80
2016,08,26,06,37,17.80
2016,08,26,06,38,17.70
2016,08,26,06,39,17.70
2016,08,26,06,40,17.70
2016,08,26,06,41,17.60
2016,08,26,06,42,17.50
2016,08,26,06,43,17.50
2016,08,26,06,44,17.40
2016,08,26,06,45,17.40
2016,08,26,06,46,17.30
2016,08,26,06,47,17.30
2016,08,26,06,48,17.30
2016,08,26,06,49,17.30
2016,08,26,06,50,17.30
2016,08,26,06,51,17.20
2016,08,26,06,52,17.20
2016,08,26,06,53,17.20
2016,08,26,06,54,17.20
2016,08,26,06,55,17.20
2016,08,26,06,56,17.20
2016,08,26,06,57,17.20
2016,08,26,06,58,17.20
2016,08,26,06,59,17.30
2016,08,26,07,00,17.30
2016,08,26,07,01,17.30
2016,08,26,07,02,17.30
2016,08,26,07,03,17.30
2016,08,26,07,04,17.40
2016,08,26,07,05,17.40
2016,08,26,07,06,17.50
2016,08,26,07,07,17.50
2016,08,26,07,08,17.50
2016,08,26,07,09,17.60
2016,08,26,07,10,17.60
2016,08,26,07,11,17.70
2016,08,26,07,12,17.70
2016,08,26,07,13,17.70
2016,08,26,07,14,17.70
2016,08,26,07,15,17.70
2016,08,26,07,16,17.80
2016,08,26,07,17,17.80
2016,08,26,07,18,17.80
2016,08,26,07,19,17.90
2016,08,26,07,20,17.90
2016,08,26,07,21,17.90
2016,08,26,07,22,17.90
2016,08,26,07,23,17.90
2016,08,26,07,24,18.00
2016,08,26,07,25,18.10
2016,08,26,07,26,18.10
2016,08,26,07,27,18.10
2016,08,26,07,28,18.10
2016,08,26,07,29,18.20
2016,08,26,07,30,18.20
2016,08,26,07,31,18.20
2016,08,26,07,32,18.20
2016,08,26,07,33,18.20
2016,08,26,07,34,18.30
2016,08,26,07,35,18.30
2016,08,26,07,36,18.30
2016,08,26,07,37,18.40
2016,08,26,07,38,18.40
2016,08,26,07,39,18.40
2016,08,26,07,40,18.50
2016,08,26,07,41,18.50
2016,08,26,07,42,18.50
2016,08,26,07,43,18.50
2016,08,26,07,44,18.50
2016,08,26,07,45,18.50
2016,08,26,07,46,18.50
2016,08,26,07,47,18.50
2016,08,26,07,48,18.50
2016,08,26,07,49,18.50
2016,08,26,07,50,18.50
2016,08,26,07,51,18.60
2016,08,26,07,52,18.60
2016,08,26,07,53,18.60
2016,08,26,07,54,18.60
2016,08,26,07,55,18.60
2016,08,26,07,56,18.60
2016,08,26,07,57,18.60
2016,08,26,07,58,18.60
2016,08,26,07,59,18.70
2016,08,26,08,00,18.70
2016,08,26,08,01,18.70
2016,08,26,08,02,18.70
2016,08,26,08,03,18.80
2016,08,26,08,04,18.80
2016,08,26,08,05,18.80
2016,08,26,08,06,18.90
2016,08,26,08,07,18.90
2016,08,26,08,08,18.90
2016,08,26,08,09,18.90
2016,08,26,08,10,18.90
2016,08,26,08,11,18.90
2016,08,26,08,12,18.90
2016,08,26,08,13,19.00
2016,08,26,08,14,19.10
2016,08,26,08,15,19.10
2016,08,26,08,16,19.10
2016,08,26,08,17,19.10
2016,08,26,08,18,19.20
2016,08,26,08,19,19.30
2016,08,26,08,20,19.30
2016,08,26,08,21,19.40
2016,08,26,08,22,19.40
2016,08,26,08,23,19.50
2016,08,26,08,24,19.50
2016,08,26,08,25,19.60
2016,08,26,08,26,19.70
2016,08,26,08,27,19.80
2016,08,26,08,28,19.90
2016,08,26,08,29,20.00
2016,08,26,08,30,20.10
2016,08,26,08,31,20.20
2016,08,26,08,32,20.30
2016,08,26,08,33,20.40
2016,08,26,08,34,20.50
2016,08,26,08,35,20.60
2016,08,26,08,36,20.70
2016,08,26,08,37,20.80
2016,08,26,08,38,20.90
2016,08,26,08,39,21.00
2016,08,26,08,40,21.00
2016,08,26,08,41,21.10
2016,08,26,08,42,21.10
2016,08,26,08,43,21.10
2016,08,26,08,44,21.20
2016,08,26,08,45,21.20
2016,08,26,08,46,21.30
2016,08,26,08,47,21.30
2016,08,26,08,48,21.30
2016,08,26,08,49,21.30
2016,08,26,08,50,21.30
2016,08,26,08,51,21.30
2016,08,26,08,52,21.30
2016,08,26,08,53,21.30
2016,08,26,08,54,21.40
2016,08,26,08,55,21.40
2016,08,26,08,56,21.40
2016,08,26,08,57,21.40
2016,08,26,08,58,21.40
2016,08,26,08,59,21.40
2016,08,26,09,00,21.50
2016,08,26,09,01,21.60
2016,08,26,09,02,21.60
2016,08,26,09,03,21.60
2016,08,26,09,04,21.60
2016,08,26,09,05,21.70
2016,08,26,09,06,21.70
2016,08,26,09,07,21.70
2016,08,26,09,08,21.80
2016,08,26,09,09,21.70
2016,08,26,09,10,21.70
2016,08,26,09,11,21.80
2016,08,26,09,12,21.80
2016,08,26,09,13,21.90
2016,08,26,09,14,21.90
2016,08,26,09,15,22.00
2016,08,26,09,16,22.10
2016,08,26,09,17,22.10
2016,08,26,09,18,22.20
2016,08,26,09,19,22.20
2016,08,26,09,20,22.20
2016,08,26,09,21,22.30
2016,08,26,09,22,22.30
2016,08,26,09,23,22.30
2016,08,26,09,24,22.40
2016,08,26,09,25,22.40
2016,08,26,09,26,22.50
2016,08,26,09,27,22.50
2016,08,26,09,28,22.50
2016,08,26,09,29,22.60
2016,08,26,09,30,22.60
2016,08,26,09,31,22.70
2016,08,26,09,32,22.70
2016,08,26,09,33,22.80
2016,08,26,09,34,22.90
2016,08,26,09,35,22.90
2016,08,26,09,36,22.90
2016,08,26,09,37,23.00
2016,08,26,09,38,23.10
2016,08,26,09,39,23.10
2016,08,26,09,40,23.20
2016,08,26,09,41,23.30
2016,08,26,09,42,23.30
2016,08,26,09,43,23.30
2016,08,26,09,44,23.30
2016,08,26,09,45,23.40
2016,08,26,09,46,23.40
2016,08,26,09,47,23.40
2016,08,26,09,48,23.40
2016,08,26,09,49,23.50
2016,08,26,09,50,23.60
2016,08,26,09,51,23.60
2016,08,26,09,52,23.70
2016,08,26,09,53,23.70
2016,08,26,09,54,23.80
2016,08,26,09,55,23.80
2016,08,26,09,56,23.80
2016,08,26,09,57,23.90
2016,08,26,09,58,24.00
2016,08,26,09,59,24.10
2016,08,26,10,00,24.10
2016,08,26,10,01,24.10
2016,08,26,10,02,24.10
2016,08,26,10,03,24.10
2016,08,26,10,04,24.20
2016,08,26,10,05,24.40
2016,08,26,10,06,24.50
2016,08,26,10,07,24.50
2016,08,26,10,08,24.70
2016,08,26,10,09,24.80
2016,08,26,10,10,24.80
2016,08,26,10,11,24.90
2016,08,26,10,12,24.90
2016,08,26,10,13,24.90
2016,08,26,10,14,24.90
2016,08,26,10,15,24.90
2016,08,26,10,16,25.00
2016,08,26,10,17,25.10
2016,08,26,10,18,25.10
2016,08,26,10,19,25.20
2016,08,26,10,20,25.30
2016,08,26,10,21,25.40
2016,08,26,10,22,25.40
2016,08,26,10,23,25.40
2016,08,26,10,24,25.50
2016,08,26,10,25,25.50
2016,08,26,10,26,25.60
2016,08,26,10,27,25.60
2016,08,26,10,28,25.50
2016,08,26,10,29,25.50
2016,08,26,10,30,25.50
2016,08,26,10,31,25.50
2016,08,26,10,32,25.50
2016,08,26,10,33,25.50
2016,08,26,10,34,25.60
2016,08,26,10,35,25.50
2016,08,26,10,36,25.50
2016,08,26,10,37,25.50
2016,08,26,10,38,25.60
2016,08,26,10,39,25.70
2016,08,26,10,40,25.70
2016,08,26,10,41,25.70
2016,08,26,10,42,25.70
2016,08,26,10,43,25.70
2016,08,26,10,44,25.70
2016,08,26,10,45,25.70
2016,08,26,10,46,25.70
2016,08,26,10,47,25.80
2016,08,26,10,48,25.80
2016,08,26,10,49,25.70
2016,08,26,10,50,25.80
2016,08,26,10,51,25.80
2016,08,26,10,52,25.80
2016,08,26,10,53,25.80
2016,08,26,10,54,25.90
2016,08,26,10,55,26.00
2016,08,26,10,56,26.00
2016,08,26,10,57,26.00
2016,08,26,10,58,26.10
2016,08,26,10,59,26.10
2016,08,26,11,00,26.30
2016,08,26,11,01,26.50
2016,08,26,11,02,26.60
2016,08,26,11,03,26.50
2016,08,26,11,04,26.40
2016,08,26,11,05,26.40
2016,08,26,11,06,26.60
2016,08,26,11,07,26.60
2016,08,26,11,08,26.60
2016,08,26,11,09,26.70
2016,08,26,11,10,26.80
2016,08,26,11,11,26.80
2016,08,26,11,12,26.90
2016,08,26,11,13,26.90
2016,08,26,11,14,26.90
2016,08,26,11,15,26.90
2016,08,26,11,16,26.90
2016,08,26,11,17,26.90
2016,08,26,11,18,26.90
2016,08,26,11,19,26.90
2016,08,26,11,20,27.00
2016,08,26,11,21,27.10
2016,08,26,11,22,27.20
2016,08,26,11,23,27.20
2016,08,26,11,24,27.00
2016,08,26,11,25,26.80
2016,08,26,11,26,26.70
2016,08,26,11,27,26.60
2016,08,26,11,28,26.50
2016,08,26,11,29,26.40
2016,08,26,11,30,26.40
2016,08,26,11,31,26.60
2016,08,26,11,32,26.70
2016,08,26,11,33,26.70
2016,08,26,11,34,26.80
2016,08,26,11,35,26.70
2016,08,26,11,36,26.60
2016,08,26,11,37,26.60
2016,08,26,11,38,26.60
2016,08,26,11,39,26.50
2016,08,26,11,40,26.20
2016,08,26,11,41,26.10
2016,08,26,11,42,26.10
2016,08,26,11,43,26.10
2016,08,26,11,44,26.10
2016,08,26,11,45,26.10
2016,08,26,11,46,26.10
2016,08,26,11,47,26.10
2016,08,26,11,48,26.00
2016,08,26,11,49,26.00
2016,08,26,11,50,26.00
2016,08,26,11,51,25.90
2016,08,26,11,52,25.80
2016,08,26,11,53,25.80
2016,08,26,11,54,25.80
2016,08,26,11,55,25.90
2016,08,26,11,56,25.90
2016,08,26,11,57,26.10
2016,08,26,11,58,26.30
2016,08,26,11,59,26.40
2016,08,26,12,00,26.60
2016,08,26,12,01,26.60
2016,08,26,12,02,26.50
2016,08,26,12,03,26.40
2016,08,26,12,04,26.30
2016,08,26,12,05,26.30
2016,08,26,12,06,26.30
2016,08,26,12,07,26.30
2016,08,26,12,08,26.20
2016,08,26,12,09,26.30
2016,08,26,12,10,26.40
2016,08,26,12,11,26.50
2016,08,26,12,12,26.70
2016,08,26,12,13,26.80
2016,08,26,12,14,26.70
2016,08,26,12,15,26.70
2016,08,26,12,16,26.60
2016,08,26,12,17,26.60
2016,08,26,12,18,26.60
2016,08,26,12,19,26.30
2016,08,26,12,20,26.10
2016,08,26,12,21,26.00
2016,08,26,12,22,26.00
2016,08,26,12,23,26.00
2016,08,26,12,24,26.00
2016,08,26,12,25,25.90
2016,08,26,12,26,25.90
2016,08,26,12,27,25.80
2016,08,26,12,28,25.80
2016,08,26,12,29,25.80
2016,08,26,12,30,25.80
2016,08,26,12,31,25.90
2016,08,26,12,32,25.90
2016,08,26,12,33,25.90
2016,08,26,12,34,25.90
2016,08,26,12,35,25.90
2016,08,26,12,36,25.90
2016,08,26,12,37,25.80
2016,08,26,12,38,25.70
2016,08,26,12,39,25.60
2016,08,26,12,40,25.60
2016,08,26,12,41,25.70
2016,08,26,12,42,25.60
2016,08,26,12,43,25.50
2016,08,26,12,44,25.40
2016,08,26,12,45,25.40
2016,08,26,12,46,25.40
2016,08,26,12,47,25.30
2016,08,26,12,48,25.30
2016,08,26,12,49,25.20
2016,08,26,12,50,25.20
2016,08,26,12,51,25.30
2016,08,26,12,52,25.20
2016,08,26,12,53,25.20
2016,08,26,12,54,25.20
2016,08,26,12,55,25.20
2016,08,26,12,56,25.20
2016,08,26,12,57,25.20
2016,08,26,12,58,25.20
2016,08,26,12,59,25.20
2016,08,26,13,00,25.20
2016,08,26,13,01,25.20
2016,08,26,13,02,25.30
2016,08,26,13,03,25.20
2016,08,26,13,04,25.10
2016,08,26,13,05,24.90
2016,08,26,13,06,24.70
2016,08,26,13,07,24.60
2016,08,26,13,08,24.70
2016,08,26,13,09,24.80
2016,08,26,13,10,24.90
2016,08,26,13,11,25.00
2016,08,26,13,12,25.20
2016,08,26,13,13,25.30
2016,08,26,13,14,25.40
2016,08,26,13,15,25.40
2016,08,26,13,16,25.40
2016,08,26,13,17,25.40
2016,08,26,13,18,25.40
2016,08,26,13,19,25.50
2016,08,26,13,20,25.60
2016,08,26,13,21,25.70
2016,08,26,13,22,25.70
2016,08,26,13,23,25.70
2016,08,26,13,24,25.70
2016,08,26,13,25,25.70
2016,08,26,13,26,25.70
2016,08,26,13,27,25.70
2016,08,26,13,28,25.60
2016,08,26,13,29,25.70
2016,08,26,13,30,25.80
2016,08,26,13,31,25.80
2016,08,26,13,32,25.80
2016,08,26,13,33,25.70
2016,08,26,13,34,25.70
2016,08,26,13,35,25.60
2016,08,26,13,36,25.40
2016,08,26,13,37,25.30
2016,08,26,13,38,25.20
2016,08,26,13,39,25.20
2016,08,26,13,40,25.20
2016,08,26,13,41,25.20
2016,08,26,13,42,25.20
2016,08,26,13,43,25.10
2016,08,26,13,44,25.10
2016,08,26,13,45,25.20
2016,08,26,13,46,25.20
2016,08,26,13,47,25.20
2016,08,26,13,48,25.20
2016,08,26,13,49,25.20
2016,08,26,13,50,25.20
2016,08,26,13,51,25.20
2016,08,26,13,52,25.20
2016,08,26,13,53,25.30
2016,08,26,13,54,25.40
2016,08,26,13,55,25.40
2016,08,26,13,56,25.40
2016,08,26,13,57,25.40
2016,08,26,13,58,25.40
2016,08,26,13,59,25.50
2016,08,26,14,00,25.50
2016,08,26,14,01,25.60
2016,08,26,14,02,25.60
2016,08,26,14,03,25.50
2016,08,26,14,04,25.40
2016,08,26,14,05,25.50
2016,08,26,14,06,25.50
2016,08,26,14,07,25.60
2016,08,26,14,08,25.70
2016,08,26,14,09,25.70
2016,08,26,14,10,25.70
2016,08,26,14,11,25.80
2016,08,26,14,12,25.90
2016,08,26,14,13,26.00
2016,08,26,14,14,26.10
2016,08,26,14,15,26.20
2016,08,26,14,16,26.30
2016,08,26,14,17,26.30
2016,08,26,14,18,26.30
2016,08,26,14,19,26.20
2016,08,26,14,20,26.00
2016,08,26,14,21,25.90
2016,08,26,14,22,25.80
2016,08,26,14,23,25.70
2016,08,26,14,24,25.70
2016,08,26,14,25,25.80
2016,08,26,14,26,25.80
2016,08,26,14,27,25.80
2016,08,26,14,28,25.80
2016,08,26,14,29,25.80
2016,08,26,14,30,25.80
2016,08,26,14,31,25.80
2016,08,26,14,32,25.80
2016,08,26,14,33,25.80
2016,08,26,14,34,25.70
2016,08,26,14,35,25.60
2016,08,26,14,36,25.60
2016,08,26,14,37,25.60
2016,08,26,14,38,25.60
2016,08,26,14,39,25.70
2016,08,26,14,40,25.70
2016,08,26,14,41,25.70
2016,08,26,14,42,25.70
2016,08,26,14,43,25.70
2016,08,26,14,44,25.60
2016,08,26,14,45,25.60
2016,08,26,14,46,25.50
2016,08,26,14,47,25.50
2016,08,26,14,48,25.50
2016,08,26,14,49,25.60
2016,08,26,14,50,25.70
2016,08,26,14,51,25.70
2016,08,26,14,52,25.80
2016,08,26,14,53,25.90
2016,08,26,14,54,26.00
2016,08,26,14,55,26.10
2016,08,26,14,56,26.10
2016,08,26,14,57,26.00
2016,08,26,14,58,25.90
2016,08,26,14,59,25.80
2016,08,26,15,00,25.80
2016,08,26,15,01,25.90
2016,08,26,15,02,26.00
2016,08,26,15,03,26.10
2016,08,26,15,04,26.30
2016,08,26,15,05,26.50
2016,08,26,15,06,26.70
2016,08,26,15,07,26.70
2016,08,26,15,08,26.60
2016,08,26,15,09,26.70
2016,08,26,15,10,26.60
2016,08,26,15,11,26.60
2016,08,26,15,12,26.60
2016,08,26,15,13,26.40
2016,08,26,15,14,26.40
2016,08,26,15,15,26.20
2016,08,26,15,16,26.20
2016,08,26,15,17,26.10
2016,08,26,15,18,26.10
2016,08,26,15,19,26.20
2016,08,26,15,20,26.30
2016,08,26,15,21,26.40
2016,08,26,15,22,26.50
2016,08,26,15,23,26.60
2016,08,26,15,24,26.60
2016,08,26,15,25,26.60
2016,08,26,15,26,26.70
2016,08,26,15,27,26.80
2016,08,26,15,28,26.90
2016,08,26,15,29,27.00
2016,08,26,15,30,27.10
2016,08,26,15,31,27.20
2016,08,26,15,32,27.30
2016,08,26,15,33,27.10
2016,08,26,15,34,27.00
2016,08,26,15,35,26.90
2016,08,26,15,36,26.90
2016,08,26,15,37,26.80
2016,08,26,15,38,26.70
2016,08,26,15,39,26.60
2016,08,26,15,40,26.50
2016,08,26,15,41,26.50
2016,08,26,15,42,26.60
2016,08,26,15,43,26.60
2016,08,26,15,44,26.70
2016,08,26,15,45,26.80
2016,08,26,15,46,26.80
2016,08,26,15,47,26.90
2016,08,26,15,48,27.00
2016,08,26,15,49,27.10
2016,08,26,15,50,27.10
2016,08,26,15,51,27.20
2016,08,26,15,52,27.20
2016,08,26,15,53,27.20
2016,08,26,15,54,27.30
2016,08,26,15,55,27.30
2016,08,26,15,56,27.30
2016,08,26,15,57,27.40
2016,08,26,15,58,27.50
2016,08,26,15,59,27.40
2016,08,26,16,00,27.30
2016,08,26,16,01,27.30
2016,08,26,16,02,27.20
2016,08,26,16,03,26.90
2016,08,26,16,04,26.70
2016,08,26,16,05,26.60
2016,08,26,16,06,26.60
2016,08,26,16,07,26.60
2016,08,26,16,08,26.60
2016,08,26,16,09,26.60
2016,08,26,16,10,26.60
2016,08,26,16,11,26.60
2016,08,26,16,12,26.60
2016,08,26,16,13,26.70
2016,08,26,16,14,26.70
2016,08,26,16,15,26.80
2016,08,26,16,16,26.80
2016,08,26,16,17,26.90
2016,08,26,16,18,26.90
2016,08,26,16,19,26.80
2016,08,26,16,20,26.80
2016,08,26,16,21,26.70
2016,08,26,16,22,26.60
2016,08,26,16,23,26.60
2016,08,26,16,24,26.60
2016,08,26,16,25,26.70
2016,08,26,16,26,26.80
2016,08,26,16,27,26.80
2016,08,26,16,28,26.80
2016,08,26,16,29,26.80
2016,08,26,16,30,26.80
2016,08,26,16,31,26.80
2016,08,26,16,32,26.80
2016,08,26,16,33,26.80
2016,08,26,16,34,26.80
2016,08,26,16,35,26.80
2016,08,26,16,36,26.80
2016,08,26,16,37,26.70
2016,08,26,16,38,26.50
2016,08,26,16,39,26.30
2016,08,26,16,40,26.30
2016,08,26,16,41,26.30
2016,08,26,16,42,26.20
2016,08,26,16,43,26.10
2016,08,26,16,44,26.10
2016,08,26,16,45,26.20
2016,08,26,16,46,26.20
2016,08,26,16,47,26.10
2016,08,26,16,48,26.10
2016,08,26,16,49,26.00
2016,08,26,16,50,25.90
2016,08,26,16,51,25.90
2016,08,26,16,52,25.90
2016,08,26,16,53,25.80
2016,08,26,16,54,25.90
2016,08,26,16,55,25.90
2016,08,26,16,56,25.90
2016,08,26,16,57,25.80
2016,08,26,16,58,25.70
2016,08,26,16,59,25.50
2016,08,26,17,00,25.40
2016,08,26,17,01,25.40
2016,08,26,17,02,25.40
2016,08,26,17,03,25.50
2016,08,26,17,04,25.60
2016,08,26,17,05,25.70
2016,08,26,17,06,25.70
2016,08,26,17,07,25.80
2016,08,26,17,08,25.90
2016,08,26,17,09,26.00
2016,08,26,17,10,26.20
2016,08,26,17,11,26.20
2016,08,26,17,12,26.30
2016,08,26,17,13,26.40
2016,08,26,17,14,26.50
2016,08,26,17,15,26.60
2016,08,26,17,16,26.60
2016,08,26,17,17,26.60
2016,08,26,17,18,26.60
2016,08,26,17,19,26.50